Oxford, NC

9:47 AM EST on November 18, 2019 (GMT -0500)
Henderson-Oxford

Weather History for KHNZ - June, 2019

Change the Weather History Date:

Friday, June 7, 2019

  Actual Average (WUND) Record (WUND)
Temperature  
Mean Temperature 70 °F -  
Max Temperature 74 °F - - (-1)
Min Temperature 65 °F - - (-1)
Cooling Degree Days 4    
Growing Degree Days 20 (Base 50)    
Moisture  
Dew Point 67 °F    
Average Humidity 94    
Maximum Humidity 99    
Minimum Humidity 80    
Precipitation  
Precipitation 0.68 in - - ()
Sea Level Pressure  
Sea Level Pressure 29.86 in    
Wind  
Wind Speed 0 mph (North)    
Max Wind Speed 0 mph    
Max Gust Speed -    
Visibility 7 miles    
Events Rain    
Averages and records for this station are not official NWS values.
T = Trace of Precipitation, MM = Missing Value Source: NWS Daily Summary

Daily Weather History Graph

Daily Weather History Graph

Search for Another Location

Airport or City:

Astronomy

Jun. 07, 2019 Rise Set
Actual Time 5:56 AM EDT 8:29 PM EDT
Civil Twilight 5:26 AM EDT 9:00 PM EDT
Nautical Twilight 4:48 AM EDT 9:37 PM EDT
Astronomical Twilight 4:07 AM EDT 10:19 PM EDT
Moon 10:09 AM EDT (6/7) No Moon Set
Length of Visible Light 15h 34m
Length of Day
14h 33m
Waxing Crescent, 22% of the Moon is Illuminated
Jun 7
Waxing Crescent
Jun 10
First Quarter
Jun 17
Full
Jun 25
Last Quarter
Jul 2
New

Hourly Weather History & Observations

Time (EDT) Temp. Dew Point Humidity Pressure Visibility Wind Dir Wind Speed Gust Speed Precip Events Conditions
12:00 AM 67.3 °F 66.2 °F 96% 29.87 in 10.0 mi Calm Calm - N/A   Clear
12:20 AM 67.1 °F 66.2 °F 97% 29.87 in 5.0 mi Calm Calm - N/A   Clear
12:40 AM 66.6 °F 65.8 °F 98% 29.87 in 4.0 mi Calm Calm - N/A   Clear
1:00 AM 66.2 °F 65.5 °F 98% 29.87 in 2.5 mi Calm Calm - N/A   Scattered Clouds
1:20 AM 66.2 °F 65.5 °F 98% 29.86 in 2.5 mi Calm Calm - N/A   Clear
1:40 AM 66.2 °F 65.5 °F 98% 29.86 in 4.0 mi Calm Calm - N/A   Scattered Clouds
2:00 AM 65.7 °F 65.3 °F 99% 29.85 in 5.0 mi Calm Calm - N/A   Scattered Clouds
2:20 AM 65.7 °F 64.9 °F 98% 29.85 in 7.0 mi Calm Calm - N/A   Scattered Clouds
2:40 AM 65.8 °F 65.3 °F 98% 29.85 in 10.0 mi Calm Calm - N/A   Scattered Clouds
3:00 AM 65.7 °F 64.9 °F 98% 29.84 in 7.0 mi Calm Calm - N/A   Clear
3:20 AM 65.7 °F 64.8 °F 97% 29.84 in 7.0 mi Calm Calm - N/A   Clear
3:40 AM 66.2 °F 64.9 °F 96% 29.84 in 10.0 mi Calm Calm - N/A   Clear
4:00 AM 66.4 °F 64.9 °F 95% 29.84 in 10.0 mi Calm Calm - N/A   Clear
4:20 AM 66.4 °F 64.9 °F 95% 29.84 in 10.0 mi Calm Calm - N/A   Clear
4:40 AM 66.4 °F 65.1 °F 96% 29.84 in 10.0 mi Calm Calm - N/A   Clear
5:00 AM 66.4 °F 64.9 °F 95% 29.84 in 10.0 mi Calm Calm - N/A   Clear
5:20 AM 66.4 °F 65.3 °F 96% 29.84 in 10.0 mi Calm Calm - N/A   Clear
5:40 AM 66.4 °F 65.3 °F 96% 29.84 in 10.0 mi Calm Calm - N/A   Clear
6:00 AM 66.2 °F 65.3 °F 97% 29.85 in 7.0 mi Calm Calm - N/A   Clear
6:20 AM 66.4 °F 65.3 °F 96% 29.86 in 7.0 mi Calm Calm - N/A   Clear
6:40 AM 67.1 °F 65.7 °F 95% 29.86 in 7.0 mi Calm Calm - N/A   Clear
7:00 AM 67.3 °F 65.8 °F 95% 29.86 in 7.0 mi Calm Calm - N/A   Clear
7:20 AM 67.5 °F 66.2 °F 96% 29.87 in 10.0 mi Calm Calm - N/A   Clear
7:40 AM 68.0 °F 66.2 °F 94% 29.87 in 10.0 mi Calm Calm - N/A   Clear
8:00 AM 68.4 °F 66.6 °F 94% 29.87 in 7.0 mi Calm Calm - N/A   Clear
8:20 AM 68.9 °F 67.1 °F 94% 29.87 in 10.0 mi Calm Calm - N/A   Clear
8:40 AM 69.8 °F 66.7 °F 90% 29.87 in 10.0 mi Calm Calm - N/A   Scattered Clouds
9:00 AM 70.7 °F 67.1 °F 88% 29.87 in 10.0 mi Calm Calm - N/A   Scattered Clouds
9:20 AM 71.2 °F 67.5 °F 88% 29.88 in 10.0 mi Calm Calm - N/A   Clear
9:40 AM 70.7 °F 67.6 °F 90% 29.87 in 10.0 mi Calm Calm - N/A   Scattered Clouds
10:00 AM 70.3 °F 67.5 °F 91% 29.88 in 7.0 mi Calm Calm - N/A Rain Light Rain
10:20 AM 70.2 °F 67.8 °F 92% 29.88 in 7.0 mi Calm Calm - N/A   Mostly Cloudy
10:40 AM 71.8 °F 68.5 °F 89% 29.88 in 10.0 mi Calm Calm - N/A   Scattered Clouds
11:00 AM 72.7 °F 67.3 °F 83% 29.89 in 10.0 mi Calm Calm - N/A   Scattered Clouds
11:20 AM 73.0 °F 67.6 °F 83% 29.88 in 10.0 mi Calm Calm - N/A   Mostly Cloudy
11:40 AM 74.1 °F 68.0 °F 81% 29.88 in 10.0 mi Calm Calm - N/A   Mostly Cloudy
12:00 PM 73.6 °F 66.9 °F 80% 29.88 in 10.0 mi Calm Calm - N/A   Unknown
12:20 PM 73.4 °F 67.1 °F 81% 29.88 in 10.0 mi Calm Calm - N/A Rain Light Rain
12:40 PM 72.5 °F 68.0 °F 86% 29.88 in 5.0 mi Calm Calm - 0.01 in Rain Rain
1:00 PM 72.0 °F 68.0 °F 87% 29.88 in 5.0 mi Calm Calm - N/A Rain Light Rain
1:20 PM 71.8 °F 69.3 °F 92% 29.87 in 5.0 mi Calm Calm - N/A Rain Light Rain
1:40 PM 71.6 °F 69.8 °F 94% 29.86 in 4.0 mi Calm Calm - 0.02 in Rain Light Rain
2:00 PM 71.2 °F 69.4 °F 94% 29.86 in 7.0 mi Calm Calm - N/A Rain Light Rain
2:20 PM 69.8 °F 67.8 °F 93% 29.86 in 3.0 mi Calm Calm - 0.06 in Rain Heavy Rain
2:40 PM 69.3 °F 68.0 °F 96% 29.85 in 4.0 mi Calm Calm - 0.11 in Rain Rain
3:00 PM 69.4 °F 68.4 °F 96% 29.85 in 2.0 mi Calm Calm - 0.01 in Rain Rain
3:20 PM 68.9 °F 67.6 °F 96% 29.85 in 1.2 mi Calm Calm - 0.30 in Rain Heavy Rain
3:40 PM 69.3 °F 68.0 °F 96% 29.85 in 3.0 mi Calm Calm - 0.42 in Rain Heavy Rain
4:00 PM 69.3 °F 68.0 °F 96% 29.84 in 2.5 mi Calm Calm - N/A Rain Rain
4:20 PM 69.8 °F 68.4 °F 95% 29.84 in 7.0 mi Calm Calm - 0.01 in   Overcast
4:40 PM 69.8 °F 68.0 °F 94% 29.84 in 10.0 mi Calm Calm - 0.01 in   Overcast
5:00 PM 70.2 °F 68.5 °F 95% 29.84 in 10.0 mi Calm Calm - N/A   Overcast
5:20 PM 70.2 °F 68.5 °F 95% 29.85 in 7.0 mi Calm Calm - N/A Rain Light Rain
5:40 PM 69.8 °F 68.7 °F 96% 29.85 in 5.0 mi Calm Calm - N/A Rain Light Rain
6:00 PM 69.6 °F 68.2 °F 95% 29.85 in 10.0 mi Calm Calm - N/A   Light Drizzle
6:20 PM 69.3 °F 68.0 °F 96% 29.85 in 3.0 mi Calm Calm - 0.01 in Rain Light Rain
6:40 PM 68.9 °F 67.5 °F 95% 29.85 in 4.0 mi Calm Calm - 0.03 in Rain Rain
7:00 PM 68.9 °F 67.6 °F 96% 29.85 in 4.0 mi Calm Calm - 0.01 in Rain Rain
7:20 PM 68.5 °F 67.6 °F 97% 29.85 in 7.0 mi Calm Calm - 0.01 in   Drizzle
7:40 PM 68.9 °F 67.6 °F 96% 29.86 in 10.0 mi Calm Calm - 0.01 in   Light Drizzle
8:00 PM 68.7 °F 67.8 °F 97% 29.86 in 5.0 mi Calm Calm - N/A Rain Light Rain
8:20 PM 68.5 °F 67.8 °F 98% 29.86 in 3.0 mi Calm Calm - 0.04 in Rain Rain
8:40 PM 68.4 °F 67.6 °F 98% 29.86 in 4.0 mi Calm Calm - 0.06 in Rain Light Rain
9:00 PM 68.4 °F 67.6 °F 98% 29.87 in 4.0 mi Calm Calm - N/A Rain Light Rain
9:20 PM 68.4 °F 67.6 °F 98% 29.87 in 7.0 mi Calm Calm - N/A Rain Light Rain
9:40 PM 68.4 °F 67.6 °F 98% 29.87 in 7.0 mi Calm Calm - 0.01 in Rain Light Rain
10:00 PM 68.2 °F 67.5 °F 98% 29.88 in 7.0 mi Calm Calm - N/A   Overcast
10:20 PM 68.2 °F 67.3 °F 97% 29.89 in 10.0 mi Calm Calm - N/A   Overcast
10:40 PM 68.0 °F 67.1 °F 97% 29.89 in 7.0 mi Calm Calm - N/A   Light Drizzle
11:00 PM 68.0 °F 67.1 °F 97% 29.90 in 10.0 mi Calm Calm - N/A   Mostly Cloudy
11:20 PM 67.6 °F 66.7 °F 97% 29.90 in 10.0 mi Calm Calm - N/A   Overcast
11:40 PM 67.6 °F 66.7 °F 97% 29.90 in 10.0 mi Calm Calm - N/A   Overcast